ALOS-4 (DAICHI-4)

Last updated on Mon Sep 21 2026 00:02:46 GMT+0000 (Coordinated Universal Time)

1 60182U 24123A 26263.58846733 .00000817 00000+0 11623-3 0 9993 2 60182 97.9220 359.3905 0001459 99.4207 260.7169 14.79472191119986
UTC large
Height (km)
Speed (km/s)
/
Latitude / Longitude
Inclination (degrees)
Orbital Period (minutes)
Azimuth
Elevation
Range (km)
Doppler Factor

Next 0 passes for location: London (51.5072 / 0.1276)

No passes found over London.
ALOS-4 (DAICHI-4)